GW3922 Weather Reports


time (UTC)temp
C
wind
direction
speed
KPH
gust
KPH
rain 1hr
cm
rain 24hr
cm
rain mn
cm
humidity
%
barometer
mb
20260508224519 20 323 3.2 6.4 0.00 0.00 0.00 62 1013.9
20260508223006 20 38 1.6 6.4 0.00 0.00 0.00 63 1014.0
20260508221510 20 23 8.0 12.9 0.00 0.00 0.00 56 1014.0
20260508220009 20 4 9.7 19.3 0.00 0.00 0.00 55 1013.9
20260508214518 20 351 11.3 22.5 0.00 0.00 0.00 53 1014.1
20260508213025 20 40 11.3 20.9 0.00 0.00 0.00 53 1013.9
20260508211510 20 349 6.4 17.7 0.00 0.00 0.00 53 1013.9
20260508210015 21 44 1.6 11.3 0.00 0.00 0.00 54 1013.9
20260508204518 20 339 8.0 22.5 0.00 0.00 0.00 49 1014.2
20260508203022 21 16 11.3 17.7 0.00 0.00 0.00 49 1014.3
20260508201527 21 20 3.2 22.5 0.00 0.00 0.00 53 1014.2
20260508200018 20 352 11.3 17.7 0.00 0.00 0.00 49 1014.5
20260508194510 21 46 8.0 19.3 0.00 0.00 0.00 47 1014.8
20260508193021 20 29 8.0 22.5 0.00 0.00 0.00 51 1015.0
20260508191526 20 328 4.8 14.5 0.00 0.00 0.00 50 1015.4
20260508190023 20 53 3.2 19.3 0.00 0.00 0.00 50 1015.8
20260508184509 20 25 4.8 19.3 0.00 0.00 0.00 53 1015.9
20260508183014 20 2 16.1 24.1 0.00 0.00 0.00 50 1016.1
20260508181526 19 113 3.2 22.5 0.00 0.00 0.00 55 1016.2
20260508180026 19 287 6.4 22.5 0.00 0.00 0.00 52 1016.4
20260508174527 19 18 1.6 20.9 0.00 0.00 0.00 49 1016.6
20260508173031 19 65 11.3 22.5 0.00 0.00 0.00 51 1016.7
20260508171523 20 140 1.6 16.1 0.00 0.00 0.00 55 1017.1
20260508170024 18 271 1.6 16.1 0.00 0.00 0.00 53 1017.3
20260508164526 18 311 3.2 16.1 0.00 0.00 0.00 54 1017.6
20260508163028 18 16 6.4 17.7 0.00 0.00 0.00 52 1017.8
20260508161531 18 342 12.9 17.7 0.00 0.00 0.00 55 1018.0
20260508160028 18 47 9.7 14.5 0.00 0.00 0.00 51 1018.2
20260508154529 18 339 8.0 27.4 0.00 0.00 0.00 52 1018.3
20260508153037 18 8 8.0 12.9 0.00 0.00 0.00 53 1018.3
20260508151530 17 253 1.6 4.8 0.00 0.00 0.00 50 1018.4
20260508150030 17 35 3.2 8.0 0.00 0.00 0.00 51 1018.4
20260508144519 17 192 3.2 14.5 0.00 0.00 0.00 50 1018.3
20260508143025 16 103 1.6 9.7 0.00 0.00 0.00 53 1018.5
20260508141525 16 173 3.2 6.4 0.00 0.00 0.00 57 1018.6
20260508140012 16 131 0.0 4.8 0.00 0.03 0.00 57 1018.7
20260508134507 15 252 0.0 6.4 0.00 0.03 0.00 63 1018.6
20260508133014 15 198 6.4 9.7 0.00 0.03 0.00 68 1018.6
20260508131516 14 80 0.0 1.6 0.00 0.05 0.00 79 1018.5
20260508130009 13 60 0.0 0.0 0.00 0.10 0.00 82 1018.5
20260508124516 12 61 0.0 0.0 0.00 0.10 0.00 87 1018.4
20260508123012 12 61 0.0 0.0 0.00 0.13 0.00 90 1018.3
20260508121516 10 62 0.0 0.0 0.00 0.15 0.00 95 1018.0
20260508120011 9 62 0.0 0.0 0.00 0.18 0.00 96 1017.8
20260508114513 7 62 0.0 0.0 0.00 0.18 0.00 96 1017.7
20260508113019 7 62 0.0 1.6 0.00 0.23 0.00 96 1017.5
20260508111518 6 59 0.0 1.6 0.00 0.36 0.00 96 1017.3
20260508110016 6 58 0.0 1.6 0.00 0.38 0.00 95 1017.0
20260508104509 6 68 0.0 1.6 0.00 0.38 0.00 95 1016.7
20260508103018 6 70 0.0 1.6 0.00 0.41 0.00 95 1016.5
20260508101516 6 60 0.0 1.6 0.00 0.41 0.00 95 1016.3
20260508100019 6 63 0.0 3.2 0.00 0.41 0.00 95 1015.9
20260508094521 7 71 0.0 0.0 0.00 0.41 0.00 95 1015.8
20260508093021 7 71 0.0 1.6 0.00 0.41 0.00 95 1015.9
20260508091521 7 51 0.0 3.2 0.00 0.41 0.00 95 1015.8
20260508090022 7 65 0.0 1.6 0.00 0.41 0.00 95 1015.7
20260508084522 7 65 0.0 1.6 0.00 0.41 0.00 95 1015.6
20260508083020 7 49 1.6 3.2 0.00 0.41 0.00 95 1015.4
20260508081523 7 74 0.0 1.6 0.00 0.43 0.00 95 1015.5
20260508080020 7 74 0.0 1.6 0.00 0.43 0.00 94 1015.4
20260508074520 7 74 0.0 1.6 0.00 0.43 0.00 94 1015.3
20260508073019 7 74 0.0 1.6 0.00 0.43 0.00 95 1015.1
20260508071528 8 23 3.2 3.2 0.00 0.43 0.00 94 1015.0
20260508070021 8 68 0.0 3.2 0.00 0.43 0.00 94 1014.9
20260508064519 8 38 0.0 3.2 0.00 0.43 0.00 94 1014.9
20260508063024 8 67 0.0 1.6 0.00 0.43 0.00 94 1014.8
20260508061527 8 56 0.0 3.2 0.00 0.46 0.00 94 1014.8
20260508060024 8 67 0.0 3.2 0.00 0.56 0.00 94 1014.8
20260508054524 8 79 0.0 3.2 0.00 0.58 0.00 94 1015.0
20260508053020 9 68 0.0 1.6 0.00 0.58 0.00 94 1015.0
20260508051528 9 69 0.0 1.6 0.00 0.61 0.00 93 1015.0
20260508050008 9 49 1.6 3.2 0.00 0.71 0.00 93 1014.9
20260508044508 10 56 0.0 3.2 0.00 0.86 0.00 93 1014.8
20260508043018 10 75 0.0 1.6 0.00 0.91 0.00 93 1014.6
20260508041518 10 75 0.0 1.6 0.00 0.91 0.00 92 1014.4
20260508040023 10 72 0.0 0.0 0.00 0.91 0.00 91 1014.4
20260508034513 11 47 0.0 3.2 0.00 0.91 0.91 91 1014.5
20260508033021 11 46 1.6 3.2 0.00 0.91 0.91 91 1014.5
20260508031519 11 65 1.6 4.8 0.00 0.91 0.91 90 1014.4
20260508030026 11 72 0.0 3.2 0.00 0.91 0.91 88 1014.2
20260508024531 12 46 0.0 3.2 0.00 0.91 0.91 88 1014.1
20260508023011 12 54 0.0 1.6 0.00 0.94 0.91 87 1013.7
20260508021518 13 47 1.6 3.2 0.00 1.09 0.91 85 1013.5
20260508020020 13 119 0.0 1.6 0.00 1.12 0.91 82 1013.4
20260508014524 13 127 0.0 1.6 0.00 1.12 0.91 81 1013.2
20260508013027 14 127 0.0 1.6 0.00 1.17 0.91 79 1012.9
20260508011513 15 126 0.0 1.6 0.00 1.17 0.91 76 1012.6
20260508010020 15 94 0.0 3.2 0.00 1.19 0.91 74 1012.2
20260508004526 16 117 0.0 3.2 0.00 1.40 0.91 71 1012.1
20260508003023 16 123 0.0 12.9 0.00 1.42 0.91 72 1012.0
20260508001526 17 214 3.2 9.7 0.00 1.55 0.91 69 1011.5
20260508000011 17 229 4.8 12.9 0.00 1.57 0.91 69 1011.3
20260507234521 18 194 4.8 14.5 0.00 1.63 0.91 68 1011.2
20260507233028 19 209 9.7 22.5 0.00 1.88 0.91 65 1010.8
20260507231534 20 210 8.0 20.9 0.00 2.01 0.91 63 1010.3
20260507230026 21 207 9.7 20.9 0.00 2.08 0.91 57 1009.9